Location: Dimsdale
(55.1333°N, 118.9833°W)
Time: 13:37:19
(UTC+00:00)

PCSat - Pass Details

Date: 11 December 2023
Orbit: 784 x 792 km, 67.0° (Epoch: 04 March)

Event Time Altitude Azimuth Distance (km) Brightness Sun altitude
Exits shadow 11:06:45 16° 50° (NE) 1,962 12.1 -41.5°
Drops below altitude 10° 11:07:50 10° 47° (NE) 2,362 12.6 -41.4°
Sets 11:10:18 0° 43° (NE) 3,296 13.5 -41.0°
